Погода в Кубовой

Россия / Новосибирская область     55°15′37″N   82°54′51″E
темп.,
°C
ветер,
м/с
пор.,
м/с
влажн.,
%
обл.,
%
осадки,
мм/ч
давл.,
гПа
погр.,
м
16 мая, вс
вс1601:00+15з2279100 2.6 101532
04:00+13зюз228931 0.0 101536
07:00+14юз23847 0.0 1014104
10:00+20юз355973 0.0 1013536
13:00+24зюз574395 0.0 10111202
16:00+26зсз7113692 0.0 10092677
19:00+20ссв796521 0.1 1008640
22:00+14св389189 3.6 1011448
17 мая, пн
пн1701:00+12с479062 3.8 1013350
04:00+11с478968 0.0 1014345
07:00+10ссв478934 0.0 1016362
10:00+13ссв336952 0.0 1017763
13:00+16сз3359100 0.0 10171293
16:00+17зсз345895 0.0 10161279
19:00+18зсз135233 0.0 1015866
22:00+14ююв51066100 0.0 1013215
18 мая, вт
вт1801:00+14ююз51379100 1.7 1011333
04:00+13ююз5118591 0.6 1008284
07:00+15зюз398388 0.8 1006267
10:00+21зсз57605 0.0 1005895
13:00+24зсз8124211 0.0 10042305
16:00+23сз8114791 0.0 10042408
19:00+19ссз68590 0.1 10061227
22:00+14св248355 0.0 1006103
19 мая, ср
ср1901:00+11св3590100 0.1 1007311
04:00+10ссв4695100 6.8 1006439
07:00+9св5993100 12.6 1006618
10:00+9св61082100 1.4 1007852
13:00+11ссв6952100 1.4 10081339
16:00+11ссв8943100 0.0 10091659
19:00+11ссв6104395 0.0 10112207
22:00+6ссв37530 0.0 1012128
20 мая, чт
чт2001:00+5сз2359100 0.0 101356
04:00+2с61396100 0.9 1015673
07:00+3с611773 1.1 1016782
10:00+5с794913 0.0 10182105
13:00+7с6837100 0.0 10182829
16:00+8с5832100 0.0 10192586
19:00+9с46335 0.0 10202418
22:00+5сз224969 0.0 102222